Location: Melbourne
(37.8666°S, 145.1333°E)
Time: 08:03:10
(UTC+11:00)

Hubble Space Telescope - Visible Passes

Search period start: 20 December 2014 00:00
Search period end: 30 December 2014 00:00
Orbit: 545 x 549 km, 28.5° (Epoch: 18 December)

Date Brightness Start Highest point End Pass type
(mag) Time Alt. Az. Time Alt. Az. Time Alt. Az.
20 Dec 2.7 04:34:19 14° N 04:35:35 15° NNE 04:38:06 10° NE visible
21 Dec 2.5 04:26:51 17° N 04:27:44 18° NNE 04:30:34 10° NE visible
22 Dec 2.4 04:19:24 19° N 04:19:53 20° N 04:22:56 10° NE visible
23 Dec 2.3 04:12:00 21° N 04:12:01 21° N 04:15:14 10° NE visible
24 Dec 2.3 04:04:39 22° NNE 04:04:39 22° NNE 04:07:27 10° NE visible
25 Dec 2.4 03:57:23 20° NNE 03:57:23 20° NNE 03:59:37 10° NE visible
26 Dec 2.7 03:50:15 17° NNE 03:50:15 17° NNE 03:51:44 10° NE visible
27 Dec 3.1 03:43:18 12° NE 03:43:18 12° NE 03:43:47 10° NE visible
27 Dec 2.8 05:19:19 10° NW 05:21:16 13° NNW 05:23:13 10° N visible
28 Dec 2.9 05:12:25 10° NNW 05:13:19 11° NNW 05:14:14 10° N visible
